Year,Month,Day,Hour,Minute,Value (Times are PST for temperature in C)
2019,10,08,00,00,10.40
2019,10,08,00,01,10.40
2019,10,08,00,02,10.40
2019,10,08,00,03,10.40
2019,10,08,00,04,10.40
2019,10,08,00,05,10.40
2019,10,08,00,06,10.40
2019,10,08,00,07,10.40
2019,10,08,00,08,10.40
2019,10,08,00,09,10.40
2019,10,08,00,10,10.40
2019,10,08,00,11,10.40
2019,10,08,00,12,10.40
2019,10,08,00,13,10.40
2019,10,08,00,14,10.40
2019,10,08,00,15,10.40
2019,10,08,00,16,10.40
2019,10,08,00,17,10.40
2019,10,08,00,18,10.40
2019,10,08,00,19,10.40
2019,10,08,00,20,10.40
2019,10,08,00,21,10.40
2019,10,08,00,22,10.40
2019,10,08,00,23,10.40
2019,10,08,00,24,10.40
2019,10,08,00,25,10.40
2019,10,08,00,26,10.40
2019,10,08,00,27,10.30
2019,10,08,00,28,10.30
2019,10,08,00,29,10.30
2019,10,08,00,30,10.30
2019,10,08,00,32,10.30
2019,10,08,00,33,10.30
2019,10,08,00,34,10.30
2019,10,08,00,35,10.30
2019,10,08,00,36,10.30
2019,10,08,00,37,10.30
2019,10,08,00,38,10.30
2019,10,08,00,39,10.30
2019,10,08,00,40,10.30
2019,10,08,00,41,10.30
2019,10,08,00,42,10.30
2019,10,08,00,43,10.30
2019,10,08,00,44,10.30
2019,10,08,00,45,10.20
2019,10,08,00,46,10.20
2019,10,08,00,47,10.20
2019,10,08,00,48,10.20
2019,10,08,00,49,10.20
2019,10,08,00,50,10.20
2019,10,08,00,51,10.20
2019,10,08,00,52,10.20
2019,10,08,00,53,10.20
2019,10,08,00,54,10.20
2019,10,08,00,55,10.20
2019,10,08,00,56,10.20
2019,10,08,00,57,10.20
2019,10,08,00,58,10.20
2019,10,08,00,59,10.20
2019,10,08,01,00,10.20
2019,10,08,01,01,10.20
2019,10,08,01,02,10.20
2019,10,08,01,03,10.20
2019,10,08,01,04,10.20
2019,10,08,01,05,10.20
2019,10,08,01,06,10.20
2019,10,08,01,07,10.20
2019,10,08,01,08,10.20
2019,10,08,01,09,10.20
2019,10,08,01,10,10.20
2019,10,08,01,11,10.20
2019,10,08,01,12,10.20
2019,10,08,01,13,10.20
2019,10,08,01,14,10.20
2019,10,08,01,15,10.20
2019,10,08,02,06,10.10
2019,10,08,02,07,9.90
2019,10,08,02,08,9.90
2019,10,08,02,09,9.90
2019,10,08,02,10,9.90
2019,10,08,02,11,9.90
2019,10,08,02,12,9.90
2019,10,08,02,13,9.90
2019,10,08,02,14,9.90
2019,10,08,02,15,9.90
2019,10,08,02,16,9.90
2019,10,08,02,17,9.90
2019,10,08,02,18,9.90
2019,10,08,02,19,9.90
2019,10,08,02,20,9.90
2019,10,08,02,21,9.90
2019,10,08,02,22,9.90
2019,10,08,02,23,9.90
2019,10,08,02,24,9.90
2019,10,08,02,25,9.90
2019,10,08,02,26,9.90
2019,10,08,02,27,9.90
2019,10,08,02,28,9.90
2019,10,08,02,29,9.90
2019,10,08,02,30,9.90
2019,10,08,02,31,9.90
2019,10,08,02,32,9.80
2019,10,08,02,33,9.80
2019,10,08,02,34,9.80
2019,10,08,02,35,9.80
2019,10,08,02,36,9.70
2019,10,08,02,37,9.70
2019,10,08,02,38,9.70
2019,10,08,02,39,9.70
2019,10,08,02,40,9.70
2019,10,08,02,41,9.70
2019,10,08,02,42,9.70
2019,10,08,02,43,9.70
2019,10,08,02,44,9.60
2019,10,08,02,45,9.60
2019,10,08,02,46,9.60
2019,10,08,02,47,9.50
2019,10,08,02,48,9.50
2019,10,08,02,49,9.50
2019,10,08,02,51,9.40
2019,10,08,02,52,9.40
2019,10,08,02,53,9.30
2019,10,08,02,54,9.30
2019,10,08,02,56,9.30
2019,10,08,02,57,9.30
2019,10,08,02,58,9.20
2019,10,08,02,59,9.20
2019,10,08,03,01,9.20
2019,10,08,03,02,9.20
2019,10,08,03,03,9.20
2019,10,08,03,04,9.20
2019,10,08,03,06,9.20
2019,10,08,03,07,9.20
2019,10,08,03,08,9.20
2019,10,08,03,09,9.20
2019,10,08,03,11,9.20
2019,10,08,03,12,9.10
2019,10,08,03,13,9.10
2019,10,08,03,14,9.10
2019,10,08,03,16,9.10
2019,10,08,03,17,9.10
2019,10,08,03,18,9.10
2019,10,08,03,19,9.10
2019,10,08,03,21,9.20
2019,10,08,03,22,9.20
2019,10,08,03,23,9.20
2019,10,08,03,24,9.20
2019,10,08,03,26,9.20
2019,10,08,03,27,9.20
2019,10,08,03,28,9.20
2019,10,08,03,29,9.20
2019,10,08,03,31,9.20
2019,10,08,03,32,9.20
2019,10,08,03,33,9.20
2019,10,08,03,34,9.20
2019,10,08,03,36,9.20
2019,10,08,03,37,9.20
2019,10,08,03,38,9.20
2019,10,08,03,39,9.10
2019,10,08,03,41,9.10
2019,10,08,03,42,9.10
2019,10,08,03,43,9.10
2019,10,08,03,44,9.20
2019,10,08,03,46,9.20
2019,10,08,03,47,9.20
2019,10,08,03,48,9.20
2019,10,08,03,49,9.20
2019,10,08,03,51,9.20
2019,10,08,03,52,9.20
2019,10,08,03,53,9.20
2019,10,08,03,54,9.20
2019,10,08,03,56,9.20
2019,10,08,03,57,9.20
2019,10,08,03,58,9.20
2019,10,08,03,59,9.20
2019,10,08,04,01,9.20
2019,10,08,04,02,9.20
2019,10,08,04,03,9.20
2019,10,08,04,04,9.20
2019,10,08,04,06,9.20
2019,10,08,04,07,9.20
2019,10,08,04,08,9.20
2019,10,08,04,09,9.20
2019,10,08,04,11,9.20
2019,10,08,04,12,9.20
2019,10,08,04,13,9.20
2019,10,08,04,14,9.20
2019,10,08,04,15,9.20
2019,10,08,04,16,9.20
2019,10,08,04,17,9.20
2019,10,08,04,18,9.20
2019,10,08,04,19,9.20
2019,10,08,04,20,9.20
2019,10,08,04,21,9.20
2019,10,08,04,22,9.20
2019,10,08,04,23,9.20
2019,10,08,04,24,9.20
2019,10,08,04,25,9.20
2019,10,08,04,26,9.20
2019,10,08,04,27,9.20
2019,10,08,04,28,9.20
2019,10,08,04,29,9.20
2019,10,08,04,30,9.20
2019,10,08,04,31,9.20
2019,10,08,04,32,9.20
2019,10,08,04,33,9.20
2019,10,08,04,34,9.20
2019,10,08,04,36,9.20
2019,10,08,04,37,9.20
2019,10,08,04,38,9.10
2019,10,08,04,39,9.10
2019,10,08,04,40,9.10
2019,10,08,04,41,9.10
2019,10,08,04,42,9.10
2019,10,08,04,43,9.10
2019,10,08,04,44,9.10
2019,10,08,04,45,9.10
2019,10,08,04,46,9.10
2019,10,08,04,47,9.10
2019,10,08,04,48,9.10
2019,10,08,04,49,9.10
2019,10,08,04,50,9.10
2019,10,08,04,51,9.10
2019,10,08,04,52,9.10
2019,10,08,04,53,9.10
2019,10,08,04,54,9.10
2019,10,08,04,55,9.20
2019,10,08,04,56,9.20
2019,10,08,04,57,9.20
2019,10,08,04,58,9.20
2019,10,08,04,59,9.20
2019,10,08,05,00,9.10
2019,10,08,05,01,9.10
2019,10,08,05,02,9.10
2019,10,08,05,03,9.10
2019,10,08,05,04,9.10
2019,10,08,05,05,9.10
2019,10,08,05,06,9.10
2019,10,08,05,07,9.00
2019,10,08,05,08,9.00
2019,10,08,05,09,9.00
2019,10,08,05,10,9.00
2019,10,08,05,11,9.00
2019,10,08,05,12,9.00
2019,10,08,05,13,9.00
2019,10,08,05,14,9.00
2019,10,08,05,15,9.00
2019,10,08,05,16,9.00
2019,10,08,05,17,9.00
2019,10,08,05,18,9.00
2019,10,08,05,19,9.00
2019,10,08,05,20,9.00
2019,10,08,05,21,9.00
2019,10,08,05,22,9.00
2019,10,08,05,23,9.00
2019,10,08,05,24,9.00
2019,10,08,05,25,9.00
2019,10,08,05,26,9.00
2019,10,08,05,27,9.00
2019,10,08,05,28,9.00
2019,10,08,05,29,9.00
2019,10,08,05,30,9.00
2019,10,08,05,31,9.00
2019,10,08,05,32,9.00
2019,10,08,05,33,9.00
2019,10,08,05,34,9.00
2019,10,08,05,35,9.00
2019,10,08,05,36,9.00
2019,10,08,05,37,8.90
2019,10,08,05,38,8.90
2019,10,08,05,39,8.90
2019,10,08,05,40,8.90
2019,10,08,05,41,8.90
2019,10,08,05,42,8.80
2019,10,08,05,43,8.80
2019,10,08,05,44,8.80
2019,10,08,05,45,8.80
2019,10,08,05,46,8.80
2019,10,08,05,47,8.80
2019,10,08,05,48,8.80
2019,10,08,05,49,8.80
2019,10,08,05,50,8.80
2019,10,08,05,51,8.70
2019,10,08,05,52,8.70
2019,10,08,05,53,8.70
2019,10,08,05,54,8.70
2019,10,08,05,55,8.70
2019,10,08,05,56,8.70
2019,10,08,05,57,8.70
2019,10,08,05,58,8.70
2019,10,08,05,59,8.70
2019,10,08,06,00,8.70
2019,10,08,06,01,8.60
2019,10,08,06,02,8.60
2019,10,08,06,03,8.60
2019,10,08,06,04,8.60
2019,10,08,06,05,8.50
2019,10,08,06,06,8.50
2019,10,08,06,07,8.50
2019,10,08,06,08,8.50
2019,10,08,06,09,8.50
2019,10,08,06,10,8.50
2019,10,08,06,11,8.50
2019,10,08,06,12,8.50
2019,10,08,06,13,8.50
2019,10,08,06,14,8.50
2019,10,08,06,15,8.50
2019,10,08,06,16,8.50
2019,10,08,06,17,8.50
2019,10,08,06,18,8.50
2019,10,08,06,19,8.50
2019,10,08,06,20,8.50
2019,10,08,06,21,8.50
2019,10,08,06,22,8.50
2019,10,08,06,23,8.50
2019,10,08,06,24,8.50
2019,10,08,06,25,8.60
2019,10,08,06,26,8.60
2019,10,08,06,27,8.60
2019,10,08,06,28,8.60
2019,10,08,06,29,8.60
2019,10,08,06,30,8.60
2019,10,08,06,32,8.60
2019,10,08,06,33,8.60
2019,10,08,06,34,8.60
2019,10,08,06,35,8.60
2019,10,08,06,36,8.60
2019,10,08,06,37,8.60
2019,10,08,06,38,8.60
2019,10,08,06,39,8.60
2019,10,08,06,40,8.60
2019,10,08,06,41,8.60
2019,10,08,06,42,8.60
2019,10,08,06,43,8.60
2019,10,08,06,44,8.60
2019,10,08,06,45,8.60
2019,10,08,06,46,8.60
2019,10,08,06,47,8.60
2019,10,08,06,48,8.60
2019,10,08,06,49,8.50
2019,10,08,06,50,8.50
2019,10,08,06,51,8.50
2019,10,08,06,52,8.50
2019,10,08,06,53,8.50
2019,10,08,06,54,8.50
2019,10,08,06,55,8.50
2019,10,08,06,56,8.40
2019,10,08,06,57,8.40
2019,10,08,06,58,8.50
2019,10,08,06,59,8.50
2019,10,08,07,00,8.50
2019,10,08,07,01,8.50
2019,10,08,07,02,8.50
2019,10,08,07,03,8.50
2019,10,08,07,04,8.50
2019,10,08,07,05,8.50
2019,10,08,07,06,8.50
2019,10,08,07,07,8.60
2019,10,08,07,08,8.60
2019,10,08,07,09,8.60
2019,10,08,07,10,8.60
2019,10,08,07,11,8.70
2019,10,08,07,12,8.70
2019,10,08,07,13,8.70
2019,10,08,07,14,8.70
2019,10,08,07,15,8.70
2019,10,08,07,16,8.70
2019,10,08,07,17,8.70
2019,10,08,07,18,8.70
2019,10,08,07,19,8.70
2019,10,08,07,20,8.70
2019,10,08,07,21,8.70
2019,10,08,07,22,8.70
2019,10,08,07,23,8.70
2019,10,08,07,24,8.70
2019,10,08,07,25,8.70
2019,10,08,07,26,8.70
2019,10,08,07,27,8.70
2019,10,08,07,28,8.70
2019,10,08,07,29,8.70
2019,10,08,07,30,8.70
2019,10,08,07,31,8.70
2019,10,08,07,32,8.70
2019,10,08,07,33,8.70
2019,10,08,07,34,8.70
2019,10,08,07,35,8.70
2019,10,08,07,37,8.70
2019,10,08,07,38,8.70
2019,10,08,07,39,8.70
2019,10,08,07,41,8.70
2019,10,08,07,42,8.70
2019,10,08,07,43,8.70
2019,10,08,07,44,8.70
2019,10,08,07,46,8.70
2019,10,08,07,47,8.70
2019,10,08,07,48,8.70
2019,10,08,07,49,8.70
2019,10,08,07,51,8.70
2019,10,08,07,52,8.70
2019,10,08,07,53,8.70
2019,10,08,07,54,8.70
2019,10,08,07,56,8.70
2019,10,08,07,57,8.70
2019,10,08,07,58,8.70
2019,10,08,07,59,8.70
2019,10,08,08,01,8.70
2019,10,08,08,02,8.70
2019,10,08,08,03,8.70
2019,10,08,08,04,8.70
2019,10,08,08,06,8.70
2019,10,08,08,07,8.70
2019,10,08,08,08,8.70
2019,10,08,08,09,8.70
2019,10,08,08,11,8.70
2019,10,08,08,12,8.70
2019,10,08,08,13,8.70
2019,10,08,08,14,8.70
2019,10,08,08,16,8.70
2019,10,08,08,17,8.70
2019,10,08,08,18,8.70
2019,10,08,08,19,8.70
2019,10,08,08,21,8.70
2019,10,08,08,22,8.70
2019,10,08,08,23,8.70
2019,10,08,08,24,8.70
2019,10,08,08,26,8.70
2019,10,08,08,27,8.70
2019,10,08,08,28,8.70
2019,10,08,08,29,8.70
2019,10,08,08,31,8.70
2019,10,08,08,32,8.70
2019,10,08,08,33,8.70
2019,10,08,08,34,8.70
2019,10,08,08,36,8.60
2019,10,08,08,37,8.60
2019,10,08,08,38,8.60
2019,10,08,08,39,8.60
2019,10,08,08,41,8.60
2019,10,08,08,42,8.60
2019,10,08,08,43,8.60
2019,10,08,08,44,8.50
2019,10,08,08,46,8.50
2019,10,08,08,47,8.40
2019,10,08,08,48,8.40
2019,10,08,08,49,8.40
2019,10,08,08,51,8.30
2019,10,08,08,52,8.30
2019,10,08,08,53,8.20
2019,10,08,08,54,8.20
2019,10,08,08,56,8.20
2019,10,08,08,57,8.20
2019,10,08,08,58,8.20
2019,10,08,08,59,8.20
2019,10,08,09,01,8.20
2019,10,08,09,02,8.20
2019,10,08,09,03,8.20
2019,10,08,09,04,8.20
2019,10,08,09,06,8.20
2019,10,08,09,07,8.10
2019,10,08,09,08,8.10
2019,10,08,09,09,8.10
2019,10,08,09,11,8.10
2019,10,08,09,12,8.20
2019,10,08,09,13,8.20
2019,10,08,09,14,8.20
2019,10,08,09,16,8.20
2019,10,08,09,17,8.20
2019,10,08,09,18,8.20
2019,10,08,09,19,8.20
2019,10,08,09,21,8.20
2019,10,08,09,22,8.20
2019,10,08,09,23,8.20
2019,10,08,09,24,8.20
2019,10,08,09,26,8.20
2019,10,08,09,27,8.20
2019,10,08,09,28,8.20
2019,10,08,09,29,8.20
2019,10,08,09,30,8.20
2019,10,08,09,31,8.20
2019,10,08,09,32,8.20
2019,10,08,09,33,8.20
2019,10,08,09,34,8.20
2019,10,08,09,36,8.10
2019,10,08,09,37,8.10
2019,10,08,09,38,8.10
2019,10,08,09,39,8.10
2019,10,08,09,40,8.20
2019,10,08,09,41,8.20
2019,10,08,09,42,8.20
2019,10,08,09,43,8.20
2019,10,08,09,44,8.20
2019,10,08,09,45,8.20
2019,10,08,09,46,8.20
2019,10,08,09,47,8.30
2019,10,08,09,48,8.30
2019,10,08,09,49,8.30
2019,10,08,09,50,8.40
2019,10,08,09,51,8.40
2019,10,08,09,52,8.50
2019,10,08,09,53,8.50
2019,10,08,09,54,8.60
2019,10,08,09,55,8.60
2019,10,08,09,56,8.70
2019,10,08,09,57,8.70
2019,10,08,09,58,8.70
2019,10,08,09,59,8.70
2019,10,08,10,00,8.70
2019,10,08,10,01,8.70
2019,10,08,10,02,8.70
2019,10,08,10,03,8.70
2019,10,08,10,04,8.80
2019,10,08,10,05,8.80
2019,10,08,10,06,8.90
2019,10,08,10,07,8.90
2019,10,08,10,08,8.90
2019,10,08,10,09,8.90
2019,10,08,10,10,9.00
2019,10,08,10,11,9.00
2019,10,08,10,12,9.00
2019,10,08,10,13,9.00
2019,10,08,10,14,9.00
2019,10,08,10,15,9.10
2019,10,08,10,16,9.10
2019,10,08,10,17,9.10
2019,10,08,10,18,9.10
2019,10,08,10,19,9.10
2019,10,08,10,20,9.10
2019,10,08,10,21,9.10
2019,10,08,10,22,9.00
2019,10,08,10,23,9.00
2019,10,08,10,24,9.00
2019,10,08,10,25,8.90
2019,10,08,10,26,8.90
2019,10,08,10,27,8.80
2019,10,08,10,28,8.80
2019,10,08,10,29,8.80
2019,10,08,10,30,8.80
2019,10,08,10,31,8.70
2019,10,08,10,32,8.70
2019,10,08,10,33,8.60
2019,10,08,10,34,8.60
2019,10,08,10,35,8.50
2019,10,08,10,36,8.50
2019,10,08,10,37,8.50
2019,10,08,10,38,8.50
2019,10,08,10,39,8.40
2019,10,08,10,40,8.40
2019,10,08,10,41,8.40
2019,10,08,10,42,8.50
2019,10,08,10,43,8.50
2019,10,08,10,44,8.50
2019,10,08,10,45,8.60
2019,10,08,10,46,8.60
2019,10,08,10,47,8.60
2019,10,08,10,48,8.60
2019,10,08,10,49,8.60
2019,10,08,10,50,8.60
2019,10,08,10,51,8.60
2019,10,08,10,52,8.50
2019,10,08,10,53,8.50
2019,10,08,10,54,8.50
2019,10,08,10,55,8.50
2019,10,08,10,56,8.50
2019,10,08,10,57,8.40
2019,10,08,10,58,8.40
2019,10,08,10,59,8.40
2019,10,08,11,00,8.40
2019,10,08,11,01,8.40
2019,10,08,11,02,8.50
2019,10,08,11,03,8.50
2019,10,08,11,04,8.50
2019,10,08,11,05,8.40
2019,10,08,11,06,8.40
2019,10,08,11,07,8.40
2019,10,08,11,08,8.40
2019,10,08,11,09,8.40
2019,10,08,11,10,8.30
2019,10,08,11,11,8.30
2019,10,08,11,12,8.30
2019,10,08,11,13,8.30
2019,10,08,11,14,8.30
2019,10,08,11,15,8.30
2019,10,08,11,16,8.30
2019,10,08,11,17,8.30
2019,10,08,11,18,8.30
2019,10,08,11,19,8.30
2019,10,08,11,20,8.40
2019,10,08,11,21,8.40
2019,10,08,11,22,8.40
2019,10,08,11,23,8.50
2019,10,08,11,24,8.50
2019,10,08,11,25,8.60
2019,10,08,11,26,8.60
2019,10,08,11,27,8.70
2019,10,08,11,28,8.70
2019,10,08,11,29,8.80
2019,10,08,11,30,8.90
2019,10,08,11,31,9.00
2019,10,08,11,32,9.00
2019,10,08,11,33,9.10
2019,10,08,11,34,9.20
2019,10,08,11,35,9.20
2019,10,08,11,36,9.20
2019,10,08,11,37,9.30
2019,10,08,11,38,9.30
2019,10,08,11,39,9.40
2019,10,08,11,40,9.40
2019,10,08,11,41,9.40
2019,10,08,11,42,9.40
2019,10,08,11,43,9.40
2019,10,08,11,44,9.40
2019,10,08,11,45,9.40
2019,10,08,11,46,9.40
2019,10,08,11,47,9.40
2019,10,08,11,48,9.40
2019,10,08,11,49,9.40
2019,10,08,11,50,9.40
2019,10,08,11,51,9.40
2019,10,08,11,52,9.40
2019,10,08,11,53,9.50
2019,10,08,11,54,9.50
2019,10,08,11,55,9.60
2019,10,08,11,56,9.60
2019,10,08,11,57,9.70
2019,10,08,11,58,9.70
2019,10,08,11,59,9.70
2019,10,08,12,00,9.70
2019,10,08,12,01,9.70
2019,10,08,12,02,9.70
2019,10,08,12,03,9.80
2019,10,08,12,04,9.80
2019,10,08,12,05,9.90
2019,10,08,12,06,9.90
2019,10,08,12,07,9.90
2019,10,08,12,08,9.90
2019,10,08,12,09,10.10
2019,10,08,12,10,10.10
2019,10,08,12,11,10.10
2019,10,08,12,12,10.20
2019,10,08,12,13,10.20
2019,10,08,12,14,10.30
2019,10,08,12,15,10.30
2019,10,08,12,16,10.40
2019,10,08,12,17,10.40
2019,10,08,12,18,10.40
2019,10,08,12,19,10.40
2019,10,08,12,20,10.60
2019,10,08,12,21,10.60
2019,10,08,12,22,10.60
2019,10,08,12,23,10.70
2019,10,08,12,24,10.70
2019,10,08,12,25,10.80
2019,10,08,12,26,10.90
2019,10,08,12,27,10.90
2019,10,08,12,28,10.90
2019,10,08,12,29,10.90
2019,10,08,12,30,11.10
2019,10,08,12,32,11.10
2019,10,08,12,33,11.10
2019,10,08,12,34,11.10
2019,10,08,12,35,11.20
2019,10,08,12,36,11.20
2019,10,08,12,37,11.30
2019,10,08,12,38,11.30
2019,10,08,12,39,11.40
2019,10,08,12,40,11.40
2019,10,08,12,41,11.40
2019,10,08,12,42,11.40
2019,10,08,12,43,11.40
2019,10,08,12,44,11.60
2019,10,08,12,45,11.60
2019,10,08,12,46,11.60
2019,10,08,12,47,11.60
2019,10,08,12,48,11.60
2019,10,08,12,49,11.60
2019,10,08,12,50,11.60
2019,10,08,12,51,11.60
2019,10,08,12,52,11.60
2019,10,08,12,53,11.60
2019,10,08,12,54,11.60
2019,10,08,12,55,11.60
2019,10,08,12,56,11.60
2019,10,08,12,58,11.60
2019,10,08,12,59,11.60
2019,10,08,13,01,11.60
2019,10,08,13,02,11.60
2019,10,08,13,03,11.60
2019,10,08,13,04,11.60
2019,10,08,13,06,11.60
2019,10,08,13,07,11.60
2019,10,08,13,08,11.60
2019,10,08,13,09,11.60
2019,10,08,13,11,11.70
2019,10,08,13,12,11.70
2019,10,08,13,13,11.70
2019,10,08,13,14,11.70
2019,10,08,13,16,11.70
2019,10,08,13,17,11.70
2019,10,08,13,18,11.70
2019,10,08,13,19,11.70
2019,10,08,13,21,11.70
2019,10,08,13,22,11.70
2019,10,08,13,23,11.80
2019,10,08,13,24,11.80
2019,10,08,13,26,11.80
2019,10,08,13,27,11.80
2019,10,08,13,28,11.70
2019,10,08,13,29,11.70
2019,10,08,13,31,11.70
2019,10,08,13,32,11.70
2019,10,08,13,33,11.70
2019,10,08,13,34,11.60
2019,10,08,13,36,11.60
2019,10,08,13,37,11.60
2019,10,08,13,38,11.60
2019,10,08,13,39,11.60
2019,10,08,13,41,11.70
2019,10,08,13,42,11.70
2019,10,08,13,43,11.80
2019,10,08,13,44,11.80
2019,10,08,13,46,11.80
2019,10,08,13,47,11.80
2019,10,08,13,48,11.90
2019,10,08,13,49,12.00
2019,10,08,13,51,12.10
2019,10,08,13,52,12.20
2019,10,08,13,53,12.30
2019,10,08,13,54,12.30
2019,10,08,13,56,12.30
2019,10,08,13,57,12.30
2019,10,08,13,58,12.40
2019,10,08,13,59,12.40
2019,10,08,14,01,12.50
2019,10,08,14,02,12.50
2019,10,08,14,03,12.60
2019,10,08,14,04,12.70
2019,10,08,14,06,12.70
2019,10,08,14,07,12.80
2019,10,08,14,08,12.80
2019,10,08,14,09,12.80
2019,10,08,14,11,12.80
2019,10,08,14,12,12.80
2019,10,08,14,13,12.80
2019,10,08,14,14,12.80
2019,10,08,14,16,12.80
2019,10,08,14,17,12.80
2019,10,08,14,18,12.80
2019,10,08,14,19,12.80
2019,10,08,14,21,12.70
2019,10,08,14,22,12.70
2019,10,08,14,23,12.60
2019,10,08,14,24,12.60
2019,10,08,14,26,12.60
2019,10,08,14,27,12.50
2019,10,08,14,28,12.50
2019,10,08,14,29,12.50
2019,10,08,14,31,12.50
2019,10,08,14,32,12.50
2019,10,08,14,33,12.50
2019,10,08,14,34,12.50
2019,10,08,14,36,12.50
2019,10,08,14,37,12.50
2019,10,08,14,38,12.50
2019,10,08,14,39,12.50
2019,10,08,14,40,12.50
2019,10,08,14,41,12.50
2019,10,08,14,42,12.50
2019,10,08,14,43,12.60
2019,10,08,14,44,12.60
2019,10,08,14,45,12.60
2019,10,08,14,46,12.60
2019,10,08,14,47,12.60
2019,10,08,14,48,12.60
2019,10,08,14,49,12.60
2019,10,08,14,50,12.60
2019,10,08,14,51,12.60
2019,10,08,14,52,12.60
2019,10,08,14,53,12.50
2019,10,08,14,54,12.50
2019,10,08,14,55,12.50
2019,10,08,14,56,12.50
2019,10,08,14,57,12.50
2019,10,08,14,58,12.50
2019,10,08,14,59,12.40
2019,10,08,15,00,12.40
2019,10,08,15,01,12.40
2019,10,08,15,02,12.40
2019,10,08,15,03,12.40
2019,10,08,15,04,12.40
2019,10,08,15,06,12.40
2019,10,08,15,07,12.40
2019,10,08,15,08,12.50
2019,10,08,15,09,12.50
2019,10,08,15,10,12.50
2019,10,08,15,11,12.60
2019,10,08,15,12,12.60
2019,10,08,15,13,12.60
2019,10,08,15,14,12.70
2019,10,08,15,15,12.70
2019,10,08,15,16,12.70
2019,10,08,15,17,12.70
2019,10,08,15,18,12.70
2019,10,08,15,19,12.70
2019,10,08,15,20,12.60
2019,10,08,15,21,12.60
2019,10,08,15,22,12.60
2019,10,08,15,23,12.50
2019,10,08,15,24,12.50
2019,10,08,15,25,12.50
2019,10,08,15,26,12.50
2019,10,08,15,27,12.50
2019,10,08,15,28,12.50
2019,10,08,15,29,12.50
2019,10,08,15,30,12.50
2019,10,08,15,31,12.50
2019,10,08,15,32,12.50
2019,10,08,15,33,12.40
2019,10,08,15,34,12.40
2019,10,08,15,35,12.30
2019,10,08,15,36,12.30
2019,10,08,15,37,12.30
2019,10,08,15,38,12.20
2019,10,08,15,39,12.10
2019,10,08,15,40,11.80
2019,10,08,15,41,11.60
2019,10,08,15,42,11.40
2019,10,08,15,43,11.10
2019,10,08,15,44,10.90
2019,10,08,15,45,10.70
2019,10,08,15,46,10.60
2019,10,08,15,47,10.40
2019,10,08,15,48,10.40
2019,10,08,15,49,10.20
2019,10,08,15,50,10.10
2019,10,08,15,51,10.10
2019,10,08,15,52,10.10
2019,10,08,15,53,10.10
2019,10,08,15,54,10.10
2019,10,08,15,55,9.90
2019,10,08,15,56,9.90
2019,10,08,15,57,9.90
2019,10,08,15,58,9.80
2019,10,08,15,59,9.70
2019,10,08,16,00,9.60
2019,10,08,16,01,9.60
2019,10,08,16,02,9.50
2019,10,08,16,03,9.40
2019,10,08,16,04,9.30
2019,10,08,16,05,9.20
2019,10,08,16,06,9.20
2019,10,08,16,07,9.20
2019,10,08,16,08,9.20
2019,10,08,16,09,9.10
2019,10,08,16,10,9.00
2019,10,08,16,11,9.00
2019,10,08,16,12,9.00
2019,10,08,16,13,8.90
2019,10,08,16,14,8.90
2019,10,08,16,15,8.90
2019,10,08,16,16,8.80
2019,10,08,16,17,8.70
2019,10,08,16,18,8.70
2019,10,08,16,19,8.70
2019,10,08,16,20,8.70
2019,10,08,16,21,8.70
2019,10,08,16,22,8.60
2019,10,08,16,23,8.60
2019,10,08,16,24,8.50
2019,10,08,16,25,8.50
2019,10,08,16,26,8.50
2019,10,08,16,27,8.50
2019,10,08,16,28,8.50
2019,10,08,16,29,8.50
2019,10,08,16,30,8.50
2019,10,08,16,31,8.50
2019,10,08,16,32,8.60
2019,10,08,16,33,8.60
2019,10,08,16,34,8.60
2019,10,08,16,35,8.60
2019,10,08,16,36,8.70
2019,10,08,16,37,8.70
2019,10,08,16,38,8.70
2019,10,08,16,39,8.70
2019,10,08,16,40,8.70
2019,10,08,16,41,8.80
2019,10,08,16,42,8.80
2019,10,08,16,43,8.90
2019,10,08,16,44,8.90
2019,10,08,16,45,8.90
2019,10,08,16,46,8.90
2019,10,08,16,47,8.90
2019,10,08,16,48,8.90
2019,10,08,16,49,8.80
2019,10,08,16,50,8.90
2019,10,08,16,51,8.90
2019,10,08,16,52,8.90
2019,10,08,16,53,8.90
2019,10,08,16,54,8.90
2019,10,08,16,55,8.90
2019,10,08,16,56,8.90
2019,10,08,16,57,8.90
2019,10,08,16,58,8.80
2019,10,08,16,59,8.80
2019,10,08,17,00,8.80
2019,10,08,17,01,8.80
2019,10,08,17,02,8.80
2019,10,08,17,03,8.80
2019,10,08,17,04,8.80
2019,10,08,17,05,8.80
2019,10,08,17,06,8.80
2019,10,08,17,07,8.80
2019,10,08,17,08,8.80
2019,10,08,17,09,8.80
2019,10,08,17,10,8.80
2019,10,08,17,11,8.80
2019,10,08,17,12,8.80
2019,10,08,17,13,8.80
2019,10,08,17,14,8.80
2019,10,08,17,15,8.80
2019,10,08,17,16,8.90
2019,10,08,17,17,8.90
2019,10,08,17,18,8.90
2019,10,08,17,19,8.90
2019,10,08,17,20,8.90
2019,10,08,17,21,8.90
2019,10,08,17,22,8.90
2019,10,08,17,23,8.90
2019,10,08,17,24,8.90
2019,10,08,17,25,8.90
2019,10,08,17,26,9.00
2019,10,08,17,27,9.00
2019,10,08,17,28,9.00
2019,10,08,17,29,9.00
2019,10,08,17,30,9.00
2019,10,08,17,31,9.00
2019,10,08,17,32,9.00
2019,10,08,17,33,9.00
2019,10,08,17,34,9.00
2019,10,08,17,35,9.00
2019,10,08,17,36,9.00
2019,10,08,17,37,8.90
2019,10,08,17,38,8.90
2019,10,08,17,39,8.90
2019,10,08,17,40,8.90
2019,10,08,17,41,9.00
2019,10,08,17,42,9.00
2019,10,08,17,43,9.00
2019,10,08,17,44,9.00
2019,10,08,17,45,9.00
2019,10,08,17,46,9.00
2019,10,08,17,47,8.90
2019,10,08,17,48,8.90
2019,10,08,17,49,8.90
2019,10,08,17,50,8.90
2019,10,08,17,51,8.90
2019,10,08,17,52,8.90
2019,10,08,17,53,8.90
2019,10,08,17,54,8.90
2019,10,08,17,55,8.90
2019,10,08,17,56,8.90
2019,10,08,17,57,8.90
2019,10,08,17,58,8.90
2019,10,08,17,59,8.90
2019,10,08,18,00,8.90
2019,10,08,18,01,8.90
2019,10,08,18,02,8.90
2019,10,08,18,03,8.90
2019,10,08,18,04,8.90
2019,10,08,18,05,8.90
2019,10,08,18,06,8.90
2019,10,08,18,08,8.90
2019,10,08,18,09,8.90
2019,10,08,18,11,8.90
2019,10,08,18,12,8.90
2019,10,08,18,13,8.90
2019,10,08,18,14,8.90
2019,10,08,18,16,8.90
2019,10,08,18,17,8.90
2019,10,08,18,18,8.90
2019,10,08,18,19,8.90
2019,10,08,18,21,8.90
2019,10,08,18,22,8.90
2019,10,08,18,23,8.90
2019,10,08,18,24,8.90
2019,10,08,18,26,8.90
2019,10,08,18,27,8.90
2019,10,08,18,28,8.90
2019,10,08,18,29,8.90
2019,10,08,18,30,8.90
2019,10,08,18,32,8.90
2019,10,08,18,33,8.90
2019,10,08,18,34,8.90
2019,10,08,18,36,8.90
2019,10,08,18,37,8.90
2019,10,08,18,38,8.90
2019,10,08,18,39,8.90
2019,10,08,18,41,8.80
2019,10,08,18,42,8.80
2019,10,08,18,43,8.80
2019,10,08,18,44,8.70
2019,10,08,18,46,8.70
2019,10,08,18,47,8.70
2019,10,08,18,48,8.70
2019,10,08,18,49,8.70
2019,10,08,18,51,8.70
2019,10,08,18,52,8.70
2019,10,08,18,53,8.60
2019,10,08,18,54,8.60
2019,10,08,18,56,8.70
2019,10,08,18,57,8.70
2019,10,08,18,58,8.70
2019,10,08,18,59,8.70
2019,10,08,19,01,8.70
2019,10,08,19,02,8.70
2019,10,08,19,03,8.70
2019,10,08,19,04,8.70
2019,10,08,19,06,8.70
2019,10,08,19,07,8.60
2019,10,08,19,08,8.60
2019,10,08,19,09,8.60
2019,10,08,19,11,8.60
2019,10,08,19,12,8.60
2019,10,08,19,13,8.50
2019,10,08,19,14,8.50
2019,10,08,19,16,8.50
2019,10,08,19,17,8.40
2019,10,08,19,18,8.40
2019,10,08,19,19,8.40
2019,10,08,19,21,8.40
2019,10,08,19,22,8.40
2019,10,08,19,23,8.30
2019,10,08,19,24,8.30
2019,10,08,19,26,8.30
2019,10,08,19,27,8.30
2019,10,08,19,28,8.30
2019,10,08,19,29,8.30
2019,10,08,19,31,8.30
2019,10,08,19,32,8.30
2019,10,08,19,33,8.20
2019,10,08,19,34,8.20
2019,10,08,19,36,8.20
2019,10,08,19,37,8.20
2019,10,08,19,38,8.20
2019,10,08,19,39,8.20
2019,10,08,19,41,8.20
2019,10,08,19,42,8.20
2019,10,08,19,43,8.20
2019,10,08,19,44,8.30
2019,10,08,19,46,8.40
2019,10,08,19,47,8.40
2019,10,08,19,48,8.40
2019,10,08,19,49,8.50
2019,10,08,19,50,8.50
2019,10,08,19,51,8.50
2019,10,08,19,52,8.50
2019,10,08,19,53,8.60
2019,10,08,19,54,8.60
2019,10,08,19,55,8.70
2019,10,08,19,56,8.70
2019,10,08,19,57,8.70
2019,10,08,19,58,8.70
2019,10,08,19,59,8.70
2019,10,08,20,00,8.70
2019,10,08,20,01,8.70
2019,10,08,20,02,8.70
2019,10,08,20,03,8.70
2019,10,08,20,04,8.70
2019,10,08,20,06,8.70
2019,10,08,20,07,8.70
2019,10,08,20,08,8.80
2019,10,08,20,09,8.80
2019,10,08,20,11,8.90
2019,10,08,20,12,8.90
2019,10,08,20,13,8.90
2019,10,08,20,14,8.90